Location: Shandelee
(41.8790°N, 74.8713°W)
Time: 13:42:19
(UTC+00:00)

CSL-04 Rocket - Pass Details

Date: 29 October 2020
Orbit: 805 x 861 km, 98.9° (Epoch: 01 December)

Event Time Altitude Azimuth Distance (km) Brightness Sun altitude
Exits shadow 23:39:12 - 150° (SSE) 2,620 6.0 -19.6°
Reaches altitude 10° 23:39:32 10° 150° (SSE) 2,489 5.9 -19.6°
Maximum altitude 23:44:58 60° 72° (ENE) 979 3.7 -20.6°
Drops below altitude 10° 23:50:23 10° 353° (N) 2,483 6.2 -21.6°
Sets 23:52:46 0° 350° (N) 3,415 7.0 -22.1°
